Regional Weather Roundup
Issued by NWS

Home | Current Version | Previous Version | Graphics & Text | Print | Product List | Glossary On
Versions: 1 2 3 4 5 6 7 8 9 10 11 12 13 14 15 16 17 18 19 20 21 22 23 24 25 26 27 28 29 30 31 32 33 34 35 36 37 38 39 40 41 42 43 44 45 46 47 48 49 50
000
ASUS45 KBOI 281510
RWRID
WEATHER ROUNDUP FOR IDAHO
NATIONAL WEATHER SERVICE BOISE ID
800 AM MST WED JAN 28 2015

NOTE: "FAIR" INDICATES FEW OR NO CLOUDS BELOW 12000 FEET
WITH NO SIGNIFICANT WEATHER AND/OR OBSTRUCTIONS TO VISIBILITY

IDZ012-014-281600-
SOUTHWEST IDAHO


CITY           SKY/WX    TMP DP  RH WIND       PRES   REMARKS
BOISE          FOG       31  31 100 CALM      30.31R VSB 1/4
CALDWELL       CLOUDY    30  25  80 CALM      30.34R VSB<1/4
MOUNTAIN HOME  FOG       32  32 100 W6        30.29R VSB 1/4 WCI  26
$$

IDZ016-017-281600-
SOUTHCENTRAL IDAHO


CITY           SKY/WX    TMP DP  RH WIND       PRES   REMARKS
BURLEY         CLOUDY    36  34  92 W10G18    30.26R FOG     WCI  28
JEROME         FOG       34  34 100 W9        30.27R VSB 1   WCI  27
TWIN FALLS     CLOUDY    40  35  83 SW8       30.26R WCI  34
$$

IDZ019>023-281600-
SOUTHEAST IDAHO


CITY           SKY/WX    TMP DP  RH WIND       PRES   REMARKS
IDAHO FALLS    FOG       36  35  96 SW14      30.23R VSB 3/4 WCI  27
POCATELLO      LGT RAIN  38  38 100 SW14      30.25R WCI  30
REXBURG        LGT RAIN  34  34 100 S10       30.21S VSB 1   WCI  26
$$

IDZ006-010-011-018-031-032-281600-
CENTRAL IDAHO MOUNTAINS


CITY           SKY/WX    TMP DP  RH WIND       PRES   REMARKS
MCCALL         FOG       28  27  96 CALM      30.25R VSB 1
HAILEY         MOCLDY    36  34  93 CALM      30.24R
STANLEY          N/A     32  29  88 CALM      30.25R
SALMON         MOCLDY   N/A N/A N/A CALM      30.27R
CHALLIS        MOCLDY    29  28  96 NW3       30.24R
$$

IDZ002-004-006-007-026-281600-
NORTHERN IDAHO


CITY           SKY/WX    TMP DP  RH WIND       PRES   REMARKS
LEWISTON       PTCLDY    34  34 100 CALM      30.33R
LOWELL           N/A     35  33  92 CALM      30.38R
COEUR D`ALENE  CLOUDY    36  34  93 W3        30.30R
MULLAN PASS    FOG       28  27  96 VRB6      30.20R VSB 1/4 WCI  22
$$



USA.gov is the U.S. government's official web portal to all federal, state and local government web resources and services.